Content
SEND FEEDBACK

Daily
Averages
Monthly
Summary
United States of America

BROOKHAVEN, MISSISSIPPI


Home > North America > United States > Mississippi
Elevation: 434 feet     Latitude: 31 33N     Longitude: 090 27W

WEATHER
 
SELECT A DAY
Number of Records: 83,628;   Date Range: 4/2/11 - 9/29/14
 
SHARE

PRINT THIS DATA

[ ← Previous Day ]
WEATHER ALMANAC - JANUARY 31, 2013
[ Next Day → ]
[ °C ]   °F
Weather ElementAverageHighLow
Temperature45.1 °F59 °F (2:35 pm)32 °F (3:55 am)
Dewpoint30.5 °F35.6 °F (7:15 pm)24.8 °F (1:55 pm)
Humidity62.1 %100 % (3:55 am)27 % (3:35 pm)
Barometer30.24 in30.33 in (11:55 pm)30.17 in (12:35 am)
Wind Speed4 mph11.5 mph (1:35 pm)
Weather ElementAverage
Visibility10 mi
Wind DirectionSSE (150.9 °)

Weather ElementTotal
Precipitation---
Heating Degree Days19.5 (Base 65)
Averaged from 70 records on January 31, 2013
WEATHER CONDITIONS BREAKOUT
WIND DIRECTION BREAKOUT
WEATHER BY HOUR - JANUARY 31, 2013
[ °C ]   °F
Local TimeTemperatureDewpointHumidityBarometerVisibilityWind DirectionWind SpeedGust SpeedPrecipitationEventsConditions
12:35 AM37.4 °F32.0 °F81 %30.17 in10.0 miCalmClear
12:55 AM35.6 °F32.0 °F87 %30.17 in10.0 miCalmClear
1:15 AM35.6 °F32.0 °F87 %30.18 in10.0 miCalmClear
1:35 AM35.6 °F32.0 °F87 %30.18 in10.0 miCalmClear
1:55 AM35.6 °F32.0 °F87 %30.19 in10.0 miCalmClear
2:15 AM35.6 °F32.0 °F87 %30.20 in10.0 miSSW (200°)3.5 mphClear
2:35 AM35.6 °F32.0 °F87 %30.19 in10.0 miCalmClear
2:55 AM33.8 °F32.0 °F93 %30.21 in10.0 miCalmClear
3:15 AM33.8 °F32.0 °F93 %30.22 in10.0 miCalmClear
3:35 AM33.8 °F32.0 °F93 %30.19 in10.0 miCalmClear
3:55 AM32.0 °F32.0 °F100 %30.19 in10.0 miCalmClear
4:15 AM32.0 °F32.0 °F100 %30.18 in10.0 miCalmClear
4:35 AM32.0 °F32.0 °F100 %30.18 in10.0 miCalmClear
4:55 AM32.0 °F32.0 °F100 %30.18 in10.0 miCalmClear
5:15 AM33.8 °F32.0 °F93 %30.18 in10.0 miCalmClear
5:35 AM33.8 °F32.0 °F93 %30.18 in10.0 miWest (260°)4.6 mphClear
5:55 AM33.8 °F30.2 °F87 %30.20 in10.0 miWSW (250°)4.6 mphClear
6:15 AM33.8 °F32.0 °F93 %30.20 in10.0 miCalmClear
6:35 AM32.0 °F32.0 °F100 %30.21 in10.0 miCalmClear
6:55 AM33.8 °F32.0 °F93 %30.22 in10.0 miCalmClear
7:15 AM33.8 °F32.0 °F93 %30.23 in10.0 miCalmClear
7:35 AM33.8 °F32.0 °F93 %30.23 in10.0 miCalmClear
7:55 AM35.6 °F32.0 °F87 %30.24 in10.0 miCalmClear
8:15 AM37.4 °F33.8 °F87 %30.25 in10.0 miSW (220°)5.8 mphClear
8:35 AM41.0 °F33.8 °F76 %30.26 in10.0 miSW (230°)4.6 mphClear
8:55 AM42.8 °F32.0 °F66 %30.27 in10.0 miSW (230°)6.9 mphClear
9:15 AM44.6 °F33.8 °F66 %30.28 in10.0 miSW (230°)5.8 mphClear
9:35 AM46.4 °F32.0 °F57 %30.29 in9.0 miWSW (250°)8.1 mphClear
9:55 AM48.2 °F32.0 °F54 %30.29 in10.0 miWSW (250°)6.9 mphClear
10:15 AM48.2 °F32.0 °F54 %30.29 in10.0 miWest (280°)8.1 mphClear
10:35 AM50.0 °F32.0 °F50 %30.29 in10.0 miWest (270°)8.1 mphClear
10:55 AM51.8 °F30.2 °F44 %30.29 in10.0 miWSW (250°)6.9 mphClear
11:15 AM51.8 °F28.4 °F41 %30.28 in10.0 miSW (230°)8.1 mphClear
11:35 AM53.6 °F28.4 °F38 %30.28 in10.0 miWSW (250°)8.1 mphClear
11:55 AM53.6 °F30.2 °F41 %30.28 in10.0 miWest (270°)10.4 mphClear
12:15 PM53.6 °F28.4 °F38 %30.27 in10.0 miWest (260°)10.4 mphClear
12:35 PM55.4 °F28.4 °F36 %30.26 in10.0 miWest (280°)8.1 mphClear
12:55 PM55.4 °F28.4 °F36 %30.25 in10.0 miWNW (290°)4.6 mphClear
1:15 PM57.2 °F28.4 °F33 %30.24 in10.0 miWest (270°)8.1 mphClear
1:35 PM57.2 °F26.6 °F31 %30.23 in10.0 miWest (260°)11.5 mphClear
1:55 PM57.2 °F24.8 °F29 %30.23 in10.0 miWNW (290°)6.9 mphClear
2:15 PM57.2 °F24.8 °F29 %30.23 in10.0 miWest (280°)8.1 mphClear
2:35 PM59.0 °F26.6 °F29 %30.23 in10.0 miWest (270°)6.9 mphClear
2:55 PM57.2 °F26.6 °F31 %30.23 in10.0 miWest (280°)8.1 mphClear
3:15 PM59.0 °F26.6 °F29 %30.23 in10.0 miCalmClear
3:35 PM59.0 °F24.8 °F27 %30.22 in10.0 miWNW (290°)5.8 mphClear
3:55 PM59.0 °F24.8 °F27 %30.22 in10.0 miWest (260°)4.6 mphClear
4:15 PM59.0 °F26.6 °F29 %30.22 in10.0 miSSW (200°)4.6 mphClear
4:35 PM57.2 °F24.8 °F29 %30.22 in10.0 miSW (230°)6.9 mphClear
4:55 PM57.2 °F24.8 °F29 %30.22 in10.0 miSSW (210°)4.6 mphClear
5:15 PM55.4 °F26.6 °F33 %30.22 in10.0 miSSW (210°)4.6 mphClear
5:35 PM55.4 °F26.6 °F33 %30.23 in10.0 miSSW (210°)4.6 mphClear
5:55 PM53.6 °F26.6 °F35 %30.24 in10.0 miSSW (210°)4.6 mphClear
6:15 PM50.0 °F32.0 °F50 %30.24 in10.0 miSSW (200°)3.5 mphClear
6:35 PM46.4 °F33.8 °F62 %30.24 in10.0 miCalmClear
6:55 PM44.6 °F33.8 °F66 %30.24 in10.0 miCalmClear
7:15 PM44.6 °F35.6 °F71 %30.24 in10.0 miCalmClear
7:35 PM42.8 °F33.8 °F70 %30.25 in10.0 miSouth (180°)4.6 mphClear
7:55 PM44.6 °F33.8 °F66 %30.25 in10.0 miCalmClear
8:15 PM44.6 °F32.0 °F61 %30.26 in10.0 miCalmClear
8:35 PM44.6 °F32.0 °F61 %30.27 in10.0 miSW (220°)3.5 mphClear
9:15 PM46.4 °F30.2 °F53 %30.29 in10.0 miSW (220°)3.5 mphClear
9:35 PM46.4 °F30.2 °F53 %30.31 in10.0 miSW (220°)5.8 mphClear
9:55 PM46.4 °F30.2 °F53 %30.31 in10.0 miSW (220°)6.9 mphClear
10:15 PM46.4 °F30.2 °F53 %30.31 in10.0 miSW (220°)6.9 mphClear
10:35 PM48.2 °F30.2 °F50 %30.31 in10.0 miSW (220°)8.1 mphClear
10:55 PM46.4 °F32.0 °F57 %30.32 in10.0 miSW (230°)5.8 mphClear
11:15 PM46.4 °F32.0 °F57 %30.31 in10.0 miSW (220°)5.8 mphClear
11:35 PM46.4 °F32.0 °F57 %30.32 in10.0 miSW (220°)6.9 mphClear
11:55 PM46.4 °F32.0 °F57 %30.33 in10.0 miSW (220°)6.9 mphClear
Hourly data recorded from K1R7, located miles away from Brookhaven, Mississippi







STORIES FROM OUR PARTNERS